Year,Month,Day,Hour,Minute,Value (Times are PST for temperature in C)
2007,10,31,00,00,4.90
2007,10,31,00,01,4.90
2007,10,31,00,02,4.90
2007,10,31,00,03,4.90
2007,10,31,00,04,4.90
2007,10,31,00,05,4.90
2007,10,31,00,06,4.90
2007,10,31,00,07,4.90
2007,10,31,00,08,4.90
2007,10,31,00,09,4.90
2007,10,31,00,10,4.90
2007,10,31,00,11,4.90
2007,10,31,00,12,4.90
2007,10,31,00,13,4.90
2007,10,31,00,14,4.90
2007,10,31,00,15,4.90
2007,10,31,00,16,5.00
2007,10,31,00,17,5.00
2007,10,31,00,18,4.90
2007,10,31,00,19,4.90
2007,10,31,00,20,4.90
2007,10,31,00,21,4.90
2007,10,31,00,22,4.90
2007,10,31,00,23,4.90
2007,10,31,00,24,4.90
2007,10,31,00,25,4.90
2007,10,31,00,26,4.90
2007,10,31,00,27,5.00
2007,10,31,00,28,5.00
2007,10,31,00,29,5.00
2007,10,31,00,30,5.00
2007,10,31,00,31,5.00
2007,10,31,00,32,5.00
2007,10,31,00,33,5.00
2007,10,31,00,34,5.00
2007,10,31,00,35,5.00
2007,10,31,00,36,5.00
2007,10,31,00,37,5.00
2007,10,31,00,38,5.00
2007,10,31,00,39,5.00
2007,10,31,00,40,5.00
2007,10,31,00,41,4.90
2007,10,31,00,42,4.90
2007,10,31,00,43,4.90
2007,10,31,00,44,4.90
2007,10,31,00,45,4.90
2007,10,31,00,46,4.90
2007,10,31,00,47,4.90
2007,10,31,00,48,4.90
2007,10,31,00,49,4.90
2007,10,31,00,50,4.90
2007,10,31,00,51,4.90
2007,10,31,00,52,4.90
2007,10,31,00,53,4.90
2007,10,31,00,54,4.80
2007,10,31,00,55,4.80
2007,10,31,00,56,4.70
2007,10,31,00,57,4.70
2007,10,31,00,58,4.60
2007,10,31,00,59,4.50
2007,10,31,01,00,4.40
2007,10,31,01,01,4.40
2007,10,31,01,02,4.30
2007,10,31,01,03,4.30
2007,10,31,01,04,4.30
2007,10,31,01,05,4.30
2007,10,31,01,06,4.30
2007,10,31,01,07,4.30
2007,10,31,01,08,4.40
2007,10,31,01,09,4.40
2007,10,31,01,10,4.40
2007,10,31,01,11,4.50
2007,10,31,01,12,4.50
2007,10,31,01,13,4.60
2007,10,31,01,14,4.60
2007,10,31,01,15,4.60
2007,10,31,01,16,4.60
2007,10,31,01,17,4.70
2007,10,31,01,18,4.70
2007,10,31,01,19,4.70
2007,10,31,01,20,4.70
2007,10,31,01,21,4.80
2007,10,31,01,22,4.80
2007,10,31,01,23,4.80
2007,10,31,01,24,4.90
2007,10,31,01,25,4.90
2007,10,31,01,26,4.90
2007,10,31,01,27,4.90
2007,10,31,01,28,5.00
2007,10,31,01,29,5.00
2007,10,31,01,30,5.10
2007,10,31,01,31,5.10
2007,10,31,01,32,5.10
2007,10,31,01,33,5.10
2007,10,31,01,34,5.10
2007,10,31,01,35,5.10
2007,10,31,01,36,5.10
2007,10,31,01,37,5.10
2007,10,31,01,38,5.10
2007,10,31,01,39,5.10
2007,10,31,01,40,5.10
2007,10,31,01,41,5.10
2007,10,31,01,42,5.10
2007,10,31,01,43,5.10
2007,10,31,01,44,5.10
2007,10,31,01,45,5.10
2007,10,31,01,46,5.10
2007,10,31,01,47,5.10
2007,10,31,01,48,5.00
2007,10,31,01,49,5.00
2007,10,31,01,50,5.00
2007,10,31,01,51,5.00
2007,10,31,01,52,5.00
2007,10,31,01,53,5.00
2007,10,31,01,54,5.00
2007,10,31,01,55,5.00
2007,10,31,01,56,4.90
2007,10,31,01,57,4.90
2007,10,31,01,58,4.90
2007,10,31,01,59,4.90
2007,10,31,02,00,4.90
2007,10,31,02,01,4.90
2007,10,31,02,02,4.90
2007,10,31,02,03,4.90
2007,10,31,02,04,4.90
2007,10,31,02,05,4.90
2007,10,31,02,06,4.90
2007,10,31,02,07,4.90
2007,10,31,02,08,4.90
2007,10,31,02,09,5.00
2007,10,31,02,10,5.00
2007,10,31,02,11,5.10
2007,10,31,02,12,5.10
2007,10,31,02,13,5.10
2007,10,31,02,14,5.10
2007,10,31,02,15,5.10
2007,10,31,02,16,5.10
2007,10,31,02,17,5.10
2007,10,31,02,18,5.10
2007,10,31,02,19,5.10
2007,10,31,02,20,5.10
2007,10,31,02,21,5.00
2007,10,31,02,22,5.00
2007,10,31,02,23,4.90
2007,10,31,02,24,4.90
2007,10,31,02,25,4.90
2007,10,31,02,26,4.80
2007,10,31,02,27,4.80
2007,10,31,02,28,4.80
2007,10,31,02,29,4.80
2007,10,31,02,30,4.80
2007,10,31,02,31,4.80
2007,10,31,02,32,4.80
2007,10,31,02,33,4.80
2007,10,31,02,34,4.80
2007,10,31,02,35,4.80
2007,10,31,02,36,4.80
2007,10,31,02,37,4.80
2007,10,31,02,38,4.80
2007,10,31,02,39,4.80
2007,10,31,02,40,4.80
2007,10,31,02,41,4.80
2007,10,31,02,42,4.80
2007,10,31,02,43,4.80
2007,10,31,02,44,4.80
2007,10,31,02,45,4.80
2007,10,31,02,46,4.80
2007,10,31,02,47,4.80
2007,10,31,02,48,4.80
2007,10,31,02,49,4.80
2007,10,31,02,50,4.80
2007,10,31,02,51,4.80
2007,10,31,02,52,4.80
2007,10,31,02,53,4.80
2007,10,31,02,54,4.80
2007,10,31,02,55,4.90
2007,10,31,02,56,4.80
2007,10,31,02,57,4.80
2007,10,31,02,58,4.80
2007,10,31,02,59,4.80
2007,10,31,03,00,4.80
2007,10,31,03,01,4.80
2007,10,31,03,02,4.80
2007,10,31,03,03,4.80
2007,10,31,03,04,4.80
2007,10,31,03,05,4.80
2007,10,31,03,06,4.80
2007,10,31,03,07,4.80
2007,10,31,03,08,4.80
2007,10,31,03,09,4.80
2007,10,31,03,10,4.80
2007,10,31,03,11,4.80
2007,10,31,03,12,4.80
2007,10,31,03,13,4.80
2007,10,31,03,14,4.80
2007,10,31,03,15,4.80
2007,10,31,03,16,4.80
2007,10,31,03,17,4.80
2007,10,31,03,18,4.80
2007,10,31,03,19,4.80
2007,10,31,03,20,4.80
2007,10,31,03,21,4.80
2007,10,31,03,22,4.80
2007,10,31,03,23,4.80
2007,10,31,03,24,4.80
2007,10,31,03,25,4.80
2007,10,31,03,26,4.80
2007,10,31,03,27,4.80
2007,10,31,03,28,4.80
2007,10,31,03,29,4.80
2007,10,31,03,30,4.80
2007,10,31,03,31,4.80
2007,10,31,03,32,4.80
2007,10,31,03,33,4.80
2007,10,31,03,34,4.80
2007,10,31,03,35,4.80
2007,10,31,03,36,4.80
2007,10,31,03,37,4.80
2007,10,31,03,38,4.80
2007,10,31,03,39,4.80
2007,10,31,03,40,4.80
2007,10,31,03,41,4.80
2007,10,31,03,42,4.80
2007,10,31,03,43,4.80
2007,10,31,03,44,4.80
2007,10,31,03,45,4.80
2007,10,31,03,46,4.80
2007,10,31,03,47,4.80
2007,10,31,03,48,4.80
2007,10,31,03,49,4.80
2007,10,31,03,50,4.80
2007,10,31,03,51,4.80
2007,10,31,03,52,4.80
2007,10,31,03,53,4.80
2007,10,31,03,54,4.80
2007,10,31,03,55,4.80
2007,10,31,03,56,4.90
2007,10,31,03,57,4.90
2007,10,31,03,58,4.90
2007,10,31,03,59,4.90
2007,10,31,04,00,4.90
2007,10,31,04,01,4.90
2007,10,31,04,02,4.90
2007,10,31,04,03,4.90
2007,10,31,04,04,4.90
2007,10,31,04,05,4.90
2007,10,31,04,06,4.90
2007,10,31,04,07,4.90
2007,10,31,04,08,4.90
2007,10,31,04,09,5.00
2007,10,31,04,10,5.00
2007,10,31,04,11,5.00
2007,10,31,04,12,5.00
2007,10,31,04,13,5.00
2007,10,31,04,14,5.10
2007,10,31,04,15,5.10
2007,10,31,04,16,5.10
2007,10,31,04,17,5.10
2007,10,31,04,18,5.10
2007,10,31,04,19,5.10
2007,10,31,04,20,5.20
2007,10,31,04,21,5.20
2007,10,31,04,22,5.20
2007,10,31,04,23,5.20
2007,10,31,04,24,5.20
2007,10,31,04,25,5.20
2007,10,31,04,26,5.20
2007,10,31,04,27,5.20
2007,10,31,04,28,5.20
2007,10,31,04,29,5.20
2007,10,31,04,30,5.20
2007,10,31,04,31,5.20
2007,10,31,04,32,5.20
2007,10,31,04,33,5.20
2007,10,31,04,34,5.20
2007,10,31,04,35,5.20
2007,10,31,04,36,5.20
2007,10,31,04,37,5.20
2007,10,31,04,38,5.20
2007,10,31,04,39,5.20
2007,10,31,04,40,5.20
2007,10,31,04,41,5.20
2007,10,31,04,42,5.20
2007,10,31,04,43,5.20
2007,10,31,04,44,5.20
2007,10,31,04,45,5.20
2007,10,31,04,46,5.20
2007,10,31,04,47,5.20
2007,10,31,04,48,5.20
2007,10,31,04,49,5.30
2007,10,31,04,50,5.30
2007,10,31,04,51,5.30
2007,10,31,04,52,5.30
2007,10,31,04,53,5.30
2007,10,31,04,54,5.30
2007,10,31,04,55,5.30
2007,10,31,04,56,5.30
2007,10,31,04,57,5.30
2007,10,31,04,58,5.30
2007,10,31,04,59,5.30
2007,10,31,05,00,5.30
2007,10,31,05,01,5.30
2007,10,31,05,02,5.30
2007,10,31,05,03,5.40
2007,10,31,05,04,5.30
2007,10,31,05,05,5.40
2007,10,31,05,06,5.30
2007,10,31,05,07,5.30
2007,10,31,05,08,5.30
2007,10,31,05,09,5.30
2007,10,31,05,10,5.30
2007,10,31,05,11,5.30
2007,10,31,05,12,5.30
2007,10,31,05,13,5.30
2007,10,31,05,14,5.30
2007,10,31,05,15,5.20
2007,10,31,05,16,5.20
2007,10,31,05,17,5.20
2007,10,31,05,18,5.20
2007,10,31,05,19,5.20
2007,10,31,05,20,5.10
2007,10,31,05,21,5.10
2007,10,31,05,22,5.10
2007,10,31,05,23,5.10
2007,10,31,05,24,5.10
2007,10,31,05,25,5.10
2007,10,31,05,26,5.10
2007,10,31,05,27,5.20
2007,10,31,05,28,5.20
2007,10,31,05,29,5.20
2007,10,31,05,30,5.20
2007,10,31,05,31,5.20
2007,10,31,05,32,5.20
2007,10,31,05,33,5.20
2007,10,31,05,34,5.20
2007,10,31,05,35,5.20
2007,10,31,05,36,5.30
2007,10,31,05,37,5.30
2007,10,31,05,38,5.30
2007,10,31,05,39,5.30
2007,10,31,05,40,5.30
2007,10,31,05,41,5.30
2007,10,31,05,42,5.40
2007,10,31,05,43,5.40
2007,10,31,05,44,5.40
2007,10,31,05,45,5.40
2007,10,31,05,46,5.40
2007,10,31,05,47,5.40
2007,10,31,05,48,5.40
2007,10,31,05,49,5.40
2007,10,31,05,50,5.40
2007,10,31,05,51,5.30
2007,10,31,05,52,5.30
2007,10,31,05,53,5.30
2007,10,31,05,54,5.30
2007,10,31,05,55,5.30
2007,10,31,05,56,5.30
2007,10,31,05,57,5.30
2007,10,31,05,58,5.30
2007,10,31,05,59,5.30
2007,10,31,06,00,5.30
2007,10,31,06,01,5.30
2007,10,31,06,02,5.20
2007,10,31,06,03,5.20
2007,10,31,06,04,5.20
2007,10,31,06,05,5.20
2007,10,31,06,06,5.20
2007,10,31,06,07,5.20
2007,10,31,06,08,5.20
2007,10,31,06,09,5.20
2007,10,31,06,10,5.20
2007,10,31,06,11,5.20
2007,10,31,06,12,5.10
2007,10,31,06,13,5.10
2007,10,31,06,14,5.10
2007,10,31,06,15,5.10
2007,10,31,06,16,5.10
2007,10,31,06,17,5.10
2007,10,31,06,18,5.20
2007,10,31,06,19,5.20
2007,10,31,06,20,5.20
2007,10,31,06,21,5.20
2007,10,31,06,22,5.20
2007,10,31,06,23,5.20
2007,10,31,06,24,5.20
2007,10,31,06,25,5.20
2007,10,31,06,26,5.20
2007,10,31,06,27,5.30
2007,10,31,06,28,5.30
2007,10,31,06,29,5.30
2007,10,31,06,30,5.30
2007,10,31,06,31,5.30
2007,10,31,06,32,5.30
2007,10,31,06,33,5.30
2007,10,31,06,34,5.30
2007,10,31,06,35,5.20
2007,10,31,06,36,5.20
2007,10,31,06,37,5.20
2007,10,31,06,38,5.20
2007,10,31,06,39,5.20
2007,10,31,06,40,5.20
2007,10,31,06,41,5.20
2007,10,31,06,42,5.20
2007,10,31,06,43,5.30
2007,10,31,06,44,5.30
2007,10,31,06,45,5.20
2007,10,31,06,46,5.20
2007,10,31,06,47,5.20
2007,10,31,06,48,5.30
2007,10,31,06,49,5.30
2007,10,31,06,50,5.30
2007,10,31,06,51,5.30
2007,10,31,06,52,5.30
2007,10,31,06,53,5.30
2007,10,31,06,54,5.30
2007,10,31,06,55,5.30
2007,10,31,06,56,5.30
2007,10,31,06,57,5.30
2007,10,31,06,58,5.30
2007,10,31,06,59,5.30
2007,10,31,07,00,5.30
2007,10,31,07,01,5.30
2007,10,31,07,02,5.30
2007,10,31,07,03,5.30
2007,10,31,07,04,5.30
2007,10,31,07,05,5.30
2007,10,31,07,06,5.30
2007,10,31,07,07,5.30
2007,10,31,07,08,5.30
2007,10,31,07,09,5.30
2007,10,31,07,10,5.30
2007,10,31,07,11,5.30
2007,10,31,07,12,5.30
2007,10,31,07,13,5.40
2007,10,31,07,14,5.40
2007,10,31,07,15,5.30
2007,10,31,07,16,5.40
2007,10,31,07,17,5.30
2007,10,31,07,18,5.40
2007,10,31,07,19,5.30
2007,10,31,07,20,5.30
2007,10,31,07,21,5.30
2007,10,31,07,22,5.30
2007,10,31,07,23,5.30
2007,10,31,07,24,5.30
2007,10,31,07,25,5.30
2007,10,31,07,26,5.30
2007,10,31,07,27,5.30
2007,10,31,07,28,5.30
2007,10,31,07,29,5.30
2007,10,31,07,30,5.30
2007,10,31,07,31,5.30
2007,10,31,07,32,5.30
2007,10,31,07,33,5.30
2007,10,31,07,34,5.30
2007,10,31,07,35,5.30
2007,10,31,07,36,5.30
2007,10,31,07,37,5.30
2007,10,31,07,38,5.30
2007,10,31,07,39,5.30
2007,10,31,07,40,5.30
2007,10,31,07,41,5.30
2007,10,31,07,42,5.40
2007,10,31,07,43,5.40
2007,10,31,07,44,5.40
2007,10,31,07,45,5.40
2007,10,31,07,46,5.40
2007,10,31,07,47,5.40
2007,10,31,07,48,5.40
2007,10,31,07,49,5.40
2007,10,31,07,50,5.40
2007,10,31,07,51,5.40
2007,10,31,07,52,5.40
2007,10,31,07,53,5.40
2007,10,31,07,54,5.40
2007,10,31,07,55,5.40
2007,10,31,07,56,5.40
2007,10,31,07,57,5.40
2007,10,31,07,58,5.40
2007,10,31,07,59,5.40
2007,10,31,08,00,5.40
2007,10,31,08,01,5.40
2007,10,31,08,02,5.40
2007,10,31,08,03,5.40
2007,10,31,08,04,5.40
2007,10,31,08,05,5.40
2007,10,31,08,06,5.40
2007,10,31,08,07,5.40
2007,10,31,08,08,5.40
2007,10,31,08,09,5.40
2007,10,31,08,10,5.40
2007,10,31,08,11,5.40
2007,10,31,08,12,5.40
2007,10,31,08,13,5.40
2007,10,31,08,14,5.40
2007,10,31,08,15,5.40
2007,10,31,08,16,5.40
2007,10,31,08,17,5.40
2007,10,31,08,18,5.40
2007,10,31,08,19,5.40
2007,10,31,08,20,5.40
2007,10,31,08,21,5.40
2007,10,31,08,22,5.40
2007,10,31,08,23,5.40
2007,10,31,08,24,5.40
2007,10,31,08,25,5.40
2007,10,31,08,26,5.40
2007,10,31,08,27,5.40
2007,10,31,08,28,5.40
2007,10,31,08,29,5.40
2007,10,31,08,30,5.40
2007,10,31,08,31,5.40
2007,10,31,08,32,5.40
2007,10,31,08,33,5.40
2007,10,31,08,34,5.40
2007,10,31,08,35,5.40
2007,10,31,08,36,5.40
2007,10,31,08,37,5.40
2007,10,31,08,38,5.40
2007,10,31,08,39,5.40
2007,10,31,08,40,5.40
2007,10,31,08,41,5.40
2007,10,31,08,42,5.40
2007,10,31,08,43,5.40
2007,10,31,08,44,5.40
2007,10,31,08,45,5.40
2007,10,31,08,46,5.50
2007,10,31,08,47,5.50
2007,10,31,08,48,5.50
2007,10,31,08,49,5.50
2007,10,31,08,50,5.50
2007,10,31,08,51,5.50
2007,10,31,08,52,5.50
2007,10,31,08,53,5.50
2007,10,31,08,54,5.60
2007,10,31,08,55,5.60
2007,10,31,08,56,5.60
2007,10,31,08,57,5.60
2007,10,31,08,58,5.60
2007,10,31,08,59,5.60
2007,10,31,09,00,5.60
2007,10,31,09,01,5.70
2007,10,31,09,02,5.70
2007,10,31,09,03,5.70
2007,10,31,09,04,5.70
2007,10,31,09,05,5.70
2007,10,31,09,06,5.70
2007,10,31,09,07,5.80
2007,10,31,09,08,5.80
2007,10,31,09,09,5.80
2007,10,31,09,10,5.80
2007,10,31,09,11,5.90
2007,10,31,09,12,5.90
2007,10,31,09,13,5.90
2007,10,31,09,14,6.00
2007,10,31,09,15,6.00
2007,10,31,09,16,6.00
2007,10,31,09,17,6.00
2007,10,31,09,18,6.00
2007,10,31,09,19,6.10
2007,10,31,09,20,6.10
2007,10,31,09,21,6.10
2007,10,31,09,22,6.10
2007,10,31,09,23,6.10
2007,10,31,09,24,6.10
2007,10,31,09,25,6.20
2007,10,31,09,26,6.20
2007,10,31,09,27,6.20
2007,10,31,09,28,6.20
2007,10,31,09,29,6.20
2007,10,31,09,30,6.20
2007,10,31,09,31,6.30
2007,10,31,09,32,6.30
2007,10,31,09,33,6.30
2007,10,31,09,34,6.30
2007,10,31,09,35,6.30
2007,10,31,09,36,6.30
2007,10,31,09,37,6.30
2007,10,31,09,38,6.30
2007,10,31,09,39,6.30
2007,10,31,09,40,6.40
2007,10,31,09,41,6.40
2007,10,31,09,42,6.40
2007,10,31,09,43,6.40
2007,10,31,09,44,6.40
2007,10,31,09,45,6.40
2007,10,31,09,46,6.40
2007,10,31,09,47,6.40
2007,10,31,09,48,6.40
2007,10,31,09,49,6.40
2007,10,31,09,50,6.40
2007,10,31,09,51,6.40
2007,10,31,09,52,6.40
2007,10,31,09,53,6.40
2007,10,31,09,54,6.50
2007,10,31,09,55,6.50
2007,10,31,09,56,6.50
2007,10,31,09,57,6.50
2007,10,31,09,58,6.50
2007,10,31,09,59,6.50
2007,10,31,10,00,6.50
2007,10,31,10,01,6.50
2007,10,31,10,02,6.50
2007,10,31,10,03,6.50
2007,10,31,10,04,6.60
2007,10,31,10,05,6.60
2007,10,31,10,06,6.60
2007,10,31,10,07,6.60
2007,10,31,10,08,6.60
2007,10,31,10,09,6.60
2007,10,31,10,10,6.60
2007,10,31,10,11,6.60
2007,10,31,10,12,6.70
2007,10,31,10,13,6.70
2007,10,31,10,14,6.70
2007,10,31,10,15,6.70
2007,10,31,10,16,6.70
2007,10,31,10,17,6.80
2007,10,31,10,18,6.80
2007,10,31,10,19,6.80
2007,10,31,10,20,6.80
2007,10,31,10,21,6.80
2007,10,31,10,22,6.80
2007,10,31,10,23,6.80
2007,10,31,10,24,6.90
2007,10,31,10,25,6.90
2007,10,31,10,26,6.90
2007,10,31,10,27,6.90
2007,10,31,10,28,7.00
2007,10,31,10,29,7.00
2007,10,31,10,30,7.00
2007,10,31,10,31,7.10
2007,10,31,10,32,7.10
2007,10,31,10,33,7.10
2007,10,31,10,34,7.10
2007,10,31,10,35,7.10
2007,10,31,10,36,7.20
2007,10,31,10,37,7.20
2007,10,31,10,38,7.20
2007,10,31,10,39,7.20
2007,10,31,10,40,7.20
2007,10,31,10,41,7.20
2007,10,31,10,42,7.20
2007,10,31,10,43,7.20
2007,10,31,10,44,7.20
2007,10,31,10,45,7.20
2007,10,31,10,46,7.20
2007,10,31,10,47,7.30
2007,10,31,10,48,7.30
2007,10,31,10,49,7.30
2007,10,31,10,50,7.40
2007,10,31,10,51,7.40
2007,10,31,10,52,7.40
2007,10,31,10,53,7.40
2007,10,31,10,54,7.40
2007,10,31,10,55,7.40
2007,10,31,10,56,7.40
2007,10,31,10,57,7.50
2007,10,31,10,58,7.50
2007,10,31,10,59,7.50
2007,10,31,11,00,7.50
2007,10,31,11,01,7.50
2007,10,31,11,02,7.60
2007,10,31,11,03,7.60
2007,10,31,11,04,7.60
2007,10,31,11,05,7.60
2007,10,31,11,06,7.60
2007,10,31,11,07,7.60
2007,10,31,11,08,7.60
2007,10,31,11,09,7.60
2007,10,31,11,10,7.60
2007,10,31,11,11,7.60
2007,10,31,11,12,7.60
2007,10,31,11,13,7.60
2007,10,31,11,14,7.70
2007,10,31,11,15,7.70
2007,10,31,11,16,7.70
2007,10,31,11,17,7.70
2007,10,31,11,18,7.70
2007,10,31,11,19,7.70
2007,10,31,11,20,7.70
2007,10,31,11,21,7.80
2007,10,31,11,22,7.80
2007,10,31,11,23,7.80
2007,10,31,11,24,7.80
2007,10,31,11,25,7.80
2007,10,31,11,26,7.80
2007,10,31,11,27,7.80
2007,10,31,11,28,7.80
2007,10,31,11,29,7.80
2007,10,31,11,30,7.80
2007,10,31,11,31,7.80
2007,10,31,11,32,7.90
2007,10,31,11,33,7.90
2007,10,31,11,34,7.90
2007,10,31,11,35,7.90
2007,10,31,11,36,7.90
2007,10,31,11,37,7.90
2007,10,31,11,38,7.90
2007,10,31,11,39,8.00
2007,10,31,11,40,8.00
2007,10,31,11,41,8.00
2007,10,31,11,42,8.10
2007,10,31,11,43,8.10
2007,10,31,11,44,8.10
2007,10,31,11,45,8.10
2007,10,31,11,46,8.10
2007,10,31,11,47,8.10
2007,10,31,11,48,8.10
2007,10,31,11,49,8.10
2007,10,31,11,50,8.00
2007,10,31,11,51,8.00
2007,10,31,11,52,8.00
2007,10,31,11,53,8.00
2007,10,31,11,54,8.00
2007,10,31,11,55,8.00
2007,10,31,11,56,8.00
2007,10,31,11,57,8.00
2007,10,31,11,58,8.00
2007,10,31,11,59,8.00
2007,10,31,12,00,7.90
2007,10,31,12,01,7.90
2007,10,31,12,02,8.00
2007,10,31,12,03,8.00
2007,10,31,12,04,8.00
2007,10,31,12,05,8.00
2007,10,31,12,06,8.00
2007,10,31,12,07,8.00
2007,10,31,12,08,8.00
2007,10,31,12,09,8.10
2007,10,31,12,10,8.10
2007,10,31,12,11,8.20
2007,10,31,12,12,8.20
2007,10,31,12,13,8.20
2007,10,31,12,14,8.20
2007,10,31,12,15,8.20
2007,10,31,12,16,8.20
2007,10,31,12,17,8.20
2007,10,31,12,18,8.30
2007,10,31,12,19,8.30
2007,10,31,12,20,8.30
2007,10,31,12,21,8.30
2007,10,31,12,22,8.30
2007,10,31,12,23,8.40
2007,10,31,12,24,8.40
2007,10,31,12,25,8.50
2007,10,31,12,26,8.60
2007,10,31,12,27,8.60
2007,10,31,12,28,8.60
2007,10,31,12,29,8.60
2007,10,31,12,30,8.60
2007,10,31,12,31,8.60
2007,10,31,12,32,8.60
2007,10,31,12,33,8.60
2007,10,31,12,34,8.60
2007,10,31,12,35,8.60
2007,10,31,12,36,8.70
2007,10,31,12,37,8.70
2007,10,31,12,38,8.70
2007,10,31,12,39,8.70
2007,10,31,12,40,8.70
2007,10,31,12,41,8.70
2007,10,31,12,42,8.70
2007,10,31,12,43,8.80
2007,10,31,12,44,8.80
2007,10,31,12,45,8.80
2007,10,31,12,46,8.80
2007,10,31,12,47,8.80
2007,10,31,12,48,8.90
2007,10,31,12,49,8.90
2007,10,31,12,50,8.90
2007,10,31,12,51,8.90
2007,10,31,12,52,9.00
2007,10,31,12,53,9.00
2007,10,31,12,54,9.00
2007,10,31,12,55,9.00
2007,10,31,12,56,9.00
2007,10,31,12,57,9.00
2007,10,31,12,58,9.10
2007,10,31,12,59,9.10
2007,10,31,13,00,9.10
2007,10,31,13,01,9.10
2007,10,31,13,02,9.10
2007,10,31,13,03,9.10
2007,10,31,13,04,9.20
2007,10,31,13,05,9.20
2007,10,31,13,06,9.20
2007,10,31,13,07,9.20
2007,10,31,13,08,9.20
2007,10,31,13,09,9.20
2007,10,31,13,10,9.20
2007,10,31,13,11,9.10
2007,10,31,13,12,9.10
2007,10,31,13,13,9.10
2007,10,31,13,14,9.10
2007,10,31,13,15,9.00
2007,10,31,13,16,9.00
2007,10,31,13,17,9.10
2007,10,31,13,18,9.10
2007,10,31,13,19,9.10
2007,10,31,13,20,9.20
2007,10,31,13,21,9.20
2007,10,31,13,22,9.20
2007,10,31,13,23,9.20
2007,10,31,13,24,9.30
2007,10,31,13,25,9.30
2007,10,31,13,26,9.30
2007,10,31,13,27,9.30
2007,10,31,13,28,9.30
2007,10,31,13,29,9.40
2007,10,31,13,30,9.50
2007,10,31,13,31,9.50
2007,10,31,13,32,9.60
2007,10,31,13,33,9.70
2007,10,31,13,34,9.70
2007,10,31,13,35,9.70
2007,10,31,13,36,9.70
2007,10,31,13,37,9.70
2007,10,31,13,38,9.80
2007,10,31,13,39,9.80
2007,10,31,13,40,9.80
2007,10,31,13,41,9.90
2007,10,31,13,42,9.90
2007,10,31,13,43,9.90
2007,10,31,13,44,10.00
2007,10,31,13,45,10.00
2007,10,31,13,46,10.00
2007,10,31,13,47,10.00
2007,10,31,13,48,9.80
2007,10,31,13,49,9.80
2007,10,31,13,50,9.70
2007,10,31,13,51,9.70
2007,10,31,13,52,9.60
2007,10,31,13,53,9.60
2007,10,31,13,54,9.50
2007,10,31,13,55,9.40
2007,10,31,13,56,9.40
2007,10,31,13,57,9.40
2007,10,31,13,58,9.40
2007,10,31,13,59,9.30
2007,10,31,14,00,9.20
2007,10,31,14,01,9.20
2007,10,31,14,02,9.10
2007,10,31,14,03,9.10
2007,10,31,14,04,9.10
2007,10,31,14,05,9.10
2007,10,31,14,06,9.10
2007,10,31,14,07,9.10
2007,10,31,14,08,9.00
2007,10,31,14,09,9.00
2007,10,31,14,10,9.00
2007,10,31,14,11,9.00
2007,10,31,14,12,8.90
2007,10,31,14,13,8.90
2007,10,31,14,14,8.80
2007,10,31,14,15,8.80
2007,10,31,14,16,8.80
2007,10,31,14,17,8.80
2007,10,31,14,18,8.80
2007,10,31,14,19,8.80
2007,10,31,14,20,8.70
2007,10,31,14,21,8.70
2007,10,31,14,22,8.70
2007,10,31,14,23,8.70
2007,10,31,14,24,8.70
2007,10,31,14,25,8.80
2007,10,31,14,26,8.80
2007,10,31,14,27,8.80
2007,10,31,14,28,8.80
2007,10,31,14,29,8.80
2007,10,31,14,30,8.80
2007,10,31,14,31,8.80
2007,10,31,14,32,8.80
2007,10,31,14,33,8.90
2007,10,31,14,34,8.90
2007,10,31,14,35,8.90
2007,10,31,14,36,8.90
2007,10,31,14,37,8.90
2007,10,31,14,38,9.00
2007,10,31,14,39,9.00
2007,10,31,14,40,9.10
2007,10,31,14,41,9.10
2007,10,31,14,42,9.20
2007,10,31,14,43,9.20
2007,10,31,14,44,9.20
2007,10,31,14,45,9.20
2007,10,31,14,46,9.20
2007,10,31,14,47,9.10
2007,10,31,14,48,9.10
2007,10,31,14,49,9.10
2007,10,31,14,50,9.10
2007,10,31,14,51,9.10
2007,10,31,14,52,9.00
2007,10,31,14,53,9.00
2007,10,31,14,54,8.90
2007,10,31,14,55,8.90
2007,10,31,14,56,8.90
2007,10,31,14,57,8.90
2007,10,31,14,58,8.90
2007,10,31,14,59,8.90
2007,10,31,15,00,8.90
2007,10,31,15,01,9.00
2007,10,31,15,02,9.00
2007,10,31,15,03,9.00
2007,10,31,15,04,9.00
2007,10,31,15,05,9.00
2007,10,31,15,06,9.00
2007,10,31,15,07,9.00
2007,10,31,15,08,9.00
2007,10,31,15,09,8.90
2007,10,31,15,10,8.90
2007,10,31,15,11,8.90
2007,10,31,15,12,8.90
2007,10,31,15,13,8.90
2007,10,31,15,14,8.90
2007,10,31,15,15,8.90
2007,10,31,15,16,8.90
2007,10,31,15,17,9.00
2007,10,31,15,18,9.00
2007,10,31,15,19,9.00
2007,10,31,15,20,9.10
2007,10,31,15,21,9.10
2007,10,31,15,22,9.10
2007,10,31,15,23,9.10
2007,10,31,15,24,9.20
2007,10,31,15,25,9.20
2007,10,31,15,26,9.20
2007,10,31,15,27,9.20
2007,10,31,15,28,9.20
2007,10,31,15,29,9.20
2007,10,31,15,30,9.20
2007,10,31,15,31,9.20
2007,10,31,15,32,9.10
2007,10,31,15,33,9.10
2007,10,31,15,34,9.10
2007,10,31,15,35,9.00
2007,10,31,15,36,9.00
2007,10,31,15,37,8.90
2007,10,31,15,38,8.90
2007,10,31,15,39,8.90
2007,10,31,15,40,8.90
2007,10,31,15,41,8.80
2007,10,31,15,42,8.80
2007,10,31,15,43,8.80
2007,10,31,15,44,8.80
2007,10,31,15,45,8.80
2007,10,31,15,46,8.80
2007,10,31,15,47,8.80
2007,10,31,15,48,8.70
2007,10,31,15,49,8.70
2007,10,31,15,50,8.70
2007,10,31,15,51,8.70
2007,10,31,15,52,8.70
2007,10,31,15,53,8.70
2007,10,31,15,54,8.70
2007,10,31,15,55,8.70
2007,10,31,15,56,8.70
2007,10,31,15,57,8.60
2007,10,31,15,58,8.60
2007,10,31,15,59,8.60
2007,10,31,16,00,8.60
2007,10,31,16,01,8.60
2007,10,31,16,02,8.60
2007,10,31,16,03,8.60
2007,10,31,16,04,8.60
2007,10,31,16,05,8.60
2007,10,31,16,06,8.50
2007,10,31,16,07,8.50
2007,10,31,16,08,8.40
2007,10,31,16,09,8.40
2007,10,31,16,10,8.40
2007,10,31,16,11,8.40
2007,10,31,16,12,8.40
2007,10,31,16,13,8.40
2007,10,31,16,14,8.40
2007,10,31,16,15,8.30
2007,10,31,16,16,8.30
2007,10,31,16,17,8.30
2007,10,31,16,18,8.30
2007,10,31,16,19,8.30
2007,10,31,16,20,8.30
2007,10,31,16,21,8.30
2007,10,31,16,22,8.30
2007,10,31,16,23,8.20
2007,10,31,16,24,8.20
2007,10,31,16,25,8.20
2007,10,31,16,26,8.20
2007,10,31,16,27,8.20
2007,10,31,16,28,8.20
2007,10,31,16,29,8.20
2007,10,31,16,30,8.20
2007,10,31,16,31,8.20
2007,10,31,16,32,8.20
2007,10,31,16,33,8.20
2007,10,31,16,34,8.20
2007,10,31,16,35,8.20
2007,10,31,16,36,8.20
2007,10,31,16,37,8.20
2007,10,31,16,38,8.20
2007,10,31,16,39,8.20
2007,10,31,16,40,8.20
2007,10,31,16,41,8.10
2007,10,31,16,42,8.10
2007,10,31,16,43,8.10
2007,10,31,16,44,8.10
2007,10,31,16,45,8.10
2007,10,31,16,46,8.10
2007,10,31,16,47,8.10
2007,10,31,16,48,8.10
2007,10,31,16,49,8.10
2007,10,31,16,50,8.10
2007,10,31,16,51,8.10
2007,10,31,16,52,8.10
2007,10,31,16,53,8.00
2007,10,31,16,54,8.00
2007,10,31,16,55,8.00
2007,10,31,16,56,8.00
2007,10,31,16,57,7.90
2007,10,31,16,58,7.90
2007,10,31,16,59,7.90
2007,10,31,17,00,7.90
2007,10,31,17,01,7.90
2007,10,31,17,02,7.90
2007,10,31,17,03,7.90
2007,10,31,17,04,7.90
2007,10,31,17,05,7.90
2007,10,31,17,06,7.90
2007,10,31,17,07,7.80
2007,10,31,17,08,7.80
2007,10,31,17,09,7.80
2007,10,31,17,10,7.80
2007,10,31,17,11,7.80
2007,10,31,17,12,7.80
2007,10,31,17,13,7.80
2007,10,31,17,14,7.80
2007,10,31,17,15,7.80
2007,10,31,17,16,7.80
2007,10,31,17,17,7.80
2007,10,31,17,18,7.80
2007,10,31,17,19,7.80
2007,10,31,17,20,7.80
2007,10,31,17,21,7.80
2007,10,31,17,22,7.80
2007,10,31,17,23,7.80
2007,10,31,17,24,7.80
2007,10,31,17,25,7.80
2007,10,31,17,26,7.80
2007,10,31,17,27,7.80
2007,10,31,17,28,7.80
2007,10,31,17,29,7.80
2007,10,31,17,30,7.80
2007,10,31,17,31,7.80
2007,10,31,17,32,7.80
2007,10,31,17,33,7.80
2007,10,31,17,34,7.80
2007,10,31,17,35,7.80
2007,10,31,17,36,7.80
2007,10,31,17,37,7.80
2007,10,31,17,38,7.80
2007,10,31,17,39,7.80
2007,10,31,17,40,7.80
2007,10,31,17,41,7.80
2007,10,31,17,42,7.80
2007,10,31,17,43,7.80
2007,10,31,17,44,7.80
2007,10,31,17,45,7.80
2007,10,31,17,46,7.80
2007,10,31,17,47,7.80
2007,10,31,17,48,7.80
2007,10,31,17,49,7.80
2007,10,31,17,50,7.90
2007,10,31,17,51,7.80
2007,10,31,17,52,7.90
2007,10,31,17,53,7.90
2007,10,31,17,54,7.90
2007,10,31,17,55,7.90
2007,10,31,17,56,7.90
2007,10,31,17,57,7.90
2007,10,31,17,58,7.90
2007,10,31,17,59,7.90
2007,10,31,18,00,7.90
2007,10,31,18,01,7.90
2007,10,31,18,02,7.90
2007,10,31,18,03,7.90
2007,10,31,18,04,7.90
2007,10,31,18,05,7.90
2007,10,31,18,06,7.90